Regional Weather Roundup
Issued by NWS

Home | Current Version | Previous Version | Graphics & Text | Print | Product List | Glossary On
Versions: 1 2 3 4 5 6 7 8 9 10 11 12 13 14 15 16 17 18 19 20 21 22 23 24 25 26 27 28 29 30 31 32 33 34 35 36 37 38 39 40 41 42 43 44 45 46 47 48 49 50
111
ASUS43 KLSX 241157
RWRMO

WEATHER ROUNDUP FOR MISSOURI
NATIONAL WEATHER SERVICE ST LOUIS MO
700 AM CDT WED MAY 24 2017

NOTE: "FAIR" INDICATES FEW OR NO CLOUDS BELOW 12,000 FEET WITH NO
       SIGNIFICANT WEATHER AND/OR OBSTRUCTIONS TO VISIBILITY.
       CURRENT SKY AND/OR WEATHER CONDITIONS ARE NOT AVAILABLE FOR
       CHILLICOTHE AND FARMINGTON.

MOZ001>031-035>038-043-044-053-054-241300-
...NORTHERN AND WESTERN MISSOURI...

CITY           SKY/WX    TMP DP  RH WIND       PRES   REMARKS
KANSAS CTY INT CLOUDY    50  48  93 NW8       29.71S
6HR MIN TEMP:  48; 6HR MAX TEMP:  51;

LEE`S SUMMIT   CLOUDY    49  49 100 NW8       29.71S
6HR MIN TEMP:  47; 6HR MAX TEMP:  52;

ST JOSEPH      CLOUDY    51  49  92 NW10      29.72S
6HR MIN TEMP:  48; 6HR MAX TEMP:  51;

CHILLICOTHE      N/A     49  46  90 NW3       29.69F
6HR MIN TEMP:  47; 6HR MAX TEMP:  50;

KIRKSVILLE     FOG       47  46  97 NW9       29.66S VSB 1/2

$$
MOZ066>068-077>081-088>096-101>105-241300-
...SOUTHWEST MISSOURI...

CITY           SKY/WX    TMP DP  RH WIND       PRES   REMARKS
SPRINGFIELD    CLOUDY    52  49  89 NW9       29.69S
6HR MIN TEMP:  51; 6HR MAX TEMP:  55;

JOPLIN         CLEAR     52  48  86 NW7       29.74S
6HR MIN TEMP:  51; 6HR MAX TEMP:  55;


$$
MOZ032>034-039>042-045>050-055>058-069>072-241300-
...CENTRAL MISSOURI...

CITY           SKY/WX    TMP DP  RH WIND       PRES   REMARKS
COLUMBIA       NOT AVBL
JEFFERSON CITY PTSUNNY   54  47  77 NW6       29.66S
6HR MIN TEMP:  54; 6HR MAX TEMP:  56; 6HR PCP: TRACE;

ROLLA          CLOUDY    50  49  96 W8        29.63F
6HR MIN TEMP:  48; 6HR MAX TEMP:  50;

SEDALIA        SUNNY     50  49  96 NW7       29.68F
6HR MIN TEMP:  49; 6HR MAX TEMP:  56;


$$
MOZ051-052-059>065-241300-
...EAST CENTRAL MISSOURI...

CITY           SKY/WX    TMP DP  RH WIND       PRES   REMARKS
ST LOUIS INTL  PTSUNNY   55  50  83 NW7       29.60F
6HR MIN TEMP:  53; 6HR MAX TEMP:  59;


$$
MOZ072>076-082>087-097>100-106>115-241300-
...SOUTH CENTRAL AND SOUTHEAST MISSOURI...

CITY           SKY/WX    TMP DP  RH WIND       PRES   REMARKS
CAPE GIRARDEAU CLOUDY    58  54  86 NW7       29.57S
6HR MIN TEMP:  57; 6HR MAX TEMP:  60; 6HR PCP:  0.01;

POPLAR BLUFF   CLOUDY    56  53  90 NW7       29.58F
6HR MIN TEMP:  55; 6HR MAX TEMP:  60; 6HR PCP: TRACE;

WEST PLAINS    CLOUDY    52  48  86 N7        29.65S
6HR MIN TEMP:  49; 6HR MAX TEMP:  54;

$$




USA.gov is the U.S. government's official web portal to all federal, state and local government web resources and services.